Location: Dötzum
(52.0808°N, 9.8063°E)
Time: 17:42:08
(UTC+00:00)

USA 306 - Visible Passes

Search period start: 06 October 2022 00:00
Search period end: 16 October 2022 00:00
Orbit: 540 x 544 km, 54.0° (Epoch: 02 October)

Date Brightness Start Highest point End Pass type
(mag) Time Alt. Az. Time Alt. Az. Time Alt. Az.
06 Oct 3.1 02:52:39 65° NE 02:52:39 65° NE 02:56:22 10° ENE visible
06 Oct 2.9 04:28:08 13° WNW 04:31:47 75° NNE 04:35:53 10° E visible
07 Oct 3.4 02:44:52 54° NE 02:44:52 54° NE 02:48:13 10° ENE visible
07 Oct 2.8 04:20:20 16° WNW 04:23:38 81° NNE 04:27:44 10° ESE visible
08 Oct 3.8 02:37:03 44° ENE 02:37:03 44° ENE 02:40:02 10° E visible
08 Oct 2.8 04:12:32 19° WNW 04:15:26 87° NNE 04:19:32 10° ESE visible
09 Oct 4.3 02:29:15 36° ENE 02:29:15 36° ENE 02:31:49 10° E visible
09 Oct 2.7 04:04:44 23° WNW 04:07:11 85° SSW 04:11:18 10° ESE visible
10 Oct 4.7 02:21:28 29° ENE 02:21:28 29° ENE 02:23:33 10° E visible
10 Oct 2.7 03:56:57 30° WNW 03:58:53 76° SSW 04:02:59 10° ESE visible
11 Oct 5.1 02:13:42 22° E 02:13:42 22° E 02:15:16 10° E visible
11 Oct 2.7 03:49:11 39° W 03:50:33 67° SSW 03:54:36 10° ESE visible
12 Oct 5.5 02:05:59 17° E 02:05:59 17° E 02:06:56 10° E visible
12 Oct 2.8 03:41:28 50° WSW 03:42:09 58° SSW 03:46:11 10° SE visible
13 Oct 5.8 01:58:19 11° E 01:58:19 11° E 01:58:34 10° E visible
13 Oct 3.0 03:33:49 50° SSW 03:33:49 50° SSW 03:37:40 10° SE visible
14 Oct 3.7 03:26:15 35° S 03:26:15 35° S 03:29:05 10° SE visible
14 Oct 5.0 05:03:06 10° WSW 05:03:37 10° SW 05:04:09 10° SW visible
15 Oct 4.6 03:18:46 21° SSE 03:18:46 21° SSE 03:20:25 10° SSE visible
